Location: Crescent
(42.8242°N, 73.7329°W)
Time: 03:20:20
(UTC+00:00)

Vanguard 3 - Pass Details

Date: 24 February 2026
Orbit: 507 x 3205 km, 33.4° (Epoch: 6 March)

Event Time Altitude Azimuth Distance (km) Brightness Sun altitude
Rises 23:58:29 0° 270° (W) 4,650 12.9 -15.7°
Reaches altitude 10° 00:03:01 10° 256° (WSW) 3,142 11.3 -16.5°
Maximum altitude 00:08:04 20° 212° (SSW) 1,947 9.4 -17.4°
Drops below altitude 10° 00:11:45 10° 165° (SSE) 2,193 9.2 -18.1°
Enters shadow 00:12:28 - 158° (SSE) 2,360 9.3 -18.2°
